Showing default

GALAXY 35, 54741

Orbit data source: Space-Track

GALAXY 35, 54741 is a payload satellite owned by Intelsat SA (US) (US) in GEO that was launched on Tue, 13 Dec 2022 UTC via an ARIANE 5ECA+ launch vehicle from the French Guiana (FRGUI). Payload-class satellites include a variety of spacecraft equipped with specific instruments for various scientific and technological missions. These include communications satellites like Starlink; space stations such as the ISS; scientific satellites like the Hubble; Earth observation satellites from companies like Planet Labs, Umbra, and HawkEye 360; GPS; miniature CubeSats for education and research; and military/defense satellites.

Loading next visibility...
Identifier
54741, 2022-170A
Orbit
GEO
Country
Flag of USUS
Related business
Manufacturer
Maxar Space Sol
Mission
Operational Commercial Communications
Bus & Motor
SSL-1300, R-4D
Mass
3,150 kg wet, ~2,000 kg dry
Launch date (UTC)
2022-12-13 (3 years ago)
Launch vehicle
ARIANE 5ECA+
Launch site
French Guiana (FRGUI)
Object type
Payload
Rocket body
Debris
Shape & HBR
Box + 2 Pan, 6.0 m
Radar Cross Section
30.995 m², Large (>1 m²)

Expand to show TLE details & history
Last TLE update: 5 days ago

TLE from 5 days ago
0 GALAXY 35
1 54741U 22170A   26155.18239306 -.00000150  00000-0  00000-0 0  9991
2 54741   0.0158  34.4261 0002248  43.2199 147.5532  1.00272420 12762
Epoch: 2026-06-04T04:22Z
TLE epoch observation values (Epoch: 2026-06-04T04:22:38.760Z)
Latitude
-0.01691°
Longitude
-93.08348°
Altitude
35,793.948 km
Speed
3.074 km/s
True Right ascension
15h 00m 50s
True Declination
0° 01' 01"
Sunlit
Object was in daylight at epoch
Visualization orbit readout
Latitude
Unknown
Longitude
Unknown
Altitude
Unknown
Speed
Unknown
Apparent Right ascension
Unknown
Apparent Declination
Unknown
Sunlit
N/A
Visualization observer readout
Local Sidereal Time
03:27:20
Azimuth
Unknown
Elevation
Unknown
Doppler factor
Unknown
Orbital elements
Apogee altitude
35,796.966 km
Perigee altitude
35,778.009 km
Semi-major axis
42,165.624 km
Eccentricity
0.00022
Inclination
0.0158°
RAAN
34.4261°
Arg. of periapsis
43.2199°
True anomaly
147.56702°
Mean anomaly
147.5532°
Eccentric anomaly
147.56011°
Mean motion
0.25067 °/min
Orbital period
1,436.14 mins
BSTAR
0
Loading maneuver chart data...
Computing Atmospheric mass density...
Loading historical data...
Loading historical data...
Loading historical data...
Loading historical data...
Loading historical data...
Loading historical data...
Loading historical data...
Other satellites on launch #170 in the year 2022 (2022-12-13 UTC)

Documentation

Showing up to 5 results
|